Location: Prairie View Elementary School
(39.8322°N, 99.5698°W)
Time: 20:45:23
(UTC+00:00)

Cosmos 1655 Rocket - Pass Details

Date: 08 December 2019
Orbit: 970 x 1006 km, 83.0° (Epoch: 24 January)

Event Time Altitude Azimuth Distance (km) Brightness Sun altitude
Rises 01:41:52 0° 183° (S) 3,706 7.2 -27.8°
Reaches altitude 10° 01:44:23 10° 183° (S) 2,756 6.4 -28.2°
Enters shadow 01:50:32 83° 135° (SE) 1,004 3.9 -29.4°
